AirNav   Everest Fuels
 
 320 users online  

1L4 Kidwell Airport
Cal Nev Ari, Nevada, USA

GOING TO CAL NEV ARI?


FAA INFORMATION EFFECTIVE 25 FEBRUARY 2021

Location

FAA Identifier: 1L4
Lat/Long: 35-18-19.9780N 114-52-57.9100W
35-18.332967N 114-52.965167W
35.3055494,-114.8827528
(estimated)
Elevation: 2605 ft. / 794 m (estimated)
Variation: 14E (1985)
Time zone: UTC -8 (UTC -7 during Daylight Saving Time)
Zip code: 89039

Airport Operations

Airport use: Open to the public
Control tower: no
ARTCC: LOS ANGELES CENTER
FSS: RENO FLIGHT SERVICE STATION
NOTAMs facility: RNO (NOTAM-D service available)
Attendance: CONTINUOUS
Wind indicator: yes
Segmented circle: no
Lights: SS-SR

Airport Communications

CTAF: 122.9
WX AWOS-3PT at IFP (18 nm SE): 119.825 (928-754-4462)

Nearby radio navigation aids

VOR radial/distance  VOR name  Freq  Var
GFSr039/17.8GOFFS VORTAC114.4015E
EEDr313/38.1NEEDLES VORTAC115.2015E

Airport Services

Parking: tiedowns
Bottled oxygen: NONE
Bulk oxygen: NONE

Runway Information

Runway 15/33

Dimensions: 4140 x 65 ft. / 1262 x 20 m
Surface: sand, in fair condition
RWY IS MAINLY PACKED SAND AND SOME GRVL; RWY EDGES AND ENDS ARE FRQLY SOFT SAND IN DRY CONDS; RWY EDGES BURMED WITH SHARP SOIL EDGES; VARIES FROM 4 INS TO 12 INS. BRUSH IN THE RWY SAFETY AREA AND UP TO THE RWY EDGES EXCEEDS 5 FT IN HEIGHT.
Runway edge lights: non-standard
NSTD LIRL; THLD LGTS 6 GREEN LGTS.
Operational restrictions: ACFT IN TFC PAT USE CTN: 80 FT UNLGTD UNMARKED POLE 500 FT EAST OF RWY 33 THLD PENETRATES THE TRANSITIONAL 7:1 OCS TO THE RWY ALG THE HWY.
RUNWAY 15  RUNWAY 33
Traffic pattern: leftleft
Markings: none, in fair conditionnone, in fair condition
Obstructions: 5 ft. fence, 10 ft. from runway, 2:1 slope to clear15 ft. road, 560 ft. from runway, 37:1 slope to clear

Airport Ownership and Management from official FAA records

Ownership: Privately-owned
Owner: NANCY KIDWELL
PO BOX 430
CAL-NEV-ARI, NV 89039
Phone 702-297-1118
Manager: RICHARD SMITH
AIRPORT ROAD, PO BOX 317
CAL-NEV-ARI, NV 89039
Phone (702) 271-2146
ALTN CTC RICHARD SMITH, 702-271-2146.

Airport Operational Statistics

Aircraft based on the field: 17
Single engine airplanes: 13
Multi engine airplanes: 1
Ultralights: 3
    
Aircraft operations: avg 76/week *
55% local general aviation
45% transient general aviation
* for 12-month period ending 14 January 2020

Additional Remarks

ARPT IS RESIDENTIAL AIRPARK.
BE ALERT TO AUTOMOBILE TFC ON RY 15/33.
+70 FT TOWER 350 FT LEFT OF CNTRLN RWY 15 AND ADJACENT TO THE THLD.
ULTRALIGHT ACTIVITY ON AND IN VICINITY OF AIRPORT.
USE W TWY AT YOUR OWN RISK, NOT MNTNED BY THE ARPT AND HAS LARGE SCATTERED ROCKS.
RWY SFC ABT 5100 FT IN LEN, WITH UNMARKED 500 FT DISPLACEMENTS.
FOR CD CTC LOS ANGELES ARTCC AT 661-575-2079.

Instrument Procedures

There are no published instrument procedures at 1L4.

Some nearby airports with instrument procedures:

KIFP - Laughlin/Bullhead International Airport (18 nm SE)
KEED - Needles Airport (35 nm S)
KBVU - Boulder City Municipal Airport (39 nm N)
KHND - HendersonExecutive Airport (42 nm N)
KIGM - Kingman Airport (46 nm E)
 
Loc | Ops | Rwys | IFR | FBO | Links
Com | Nav | Svcs | Stats | Notes
Area around 1L4 (Kidwell Airport)
 
Road maps at: MapQuest Bing Google
 
Aerial photo
WARNING: Photo may not be current or correct
Aerial photo of 1L4 (Kidwell Airport)
Photo by Megan Artz
Photo taken 25-Oct-2008
on final approach to runway 33

Do you have a better or more recent aerial photo of Kidwell Airport that you would like to share? If so, please send us your photo.

 
Sectional chart

 
Airport distance calculator
Flying to Kidwell Airport? Find the distance to fly.

From to 1L4

Sunrise and sunset
Times for 03-Mar-2021
 Local
(UTC-8)
 Zulu
(UTC)
Morning civil twilight05:4213:42
Sunrise06:0814:08
Sunset17:3601:36
Evening civil twilight18:0102:01

Current date and time
Zulu (UTC)  03-Mar-2021 08:13:34
Local (UTC-8)  03-Mar-2021 00:13:34
 
METAR
KIFP 
30nm SE 
030735Z AUTO 00000KT 10SM CLR 13/M03 A2987 RMK AO2
KEED 
35nm S 
030656Z AUTO 00000KT 10SM CLR 12/M16 A2987 RMK AO2 SLP100 T01221156
KBVU 
39nm N 
030755Z AUTO 00000KT 10SM CLR 08/M13 A2992 RMK AO2
KHND 
42nm N 
030656Z AUTO 17006KT 10SM CLR 08/M13 A2993 RMK AO2 SLP150 T00781133
KIGM 
47nm E 
030751Z AUTO 00000KT 10SM CLR 02/M15 A2994 RMK AO2 SLP103 T00171150
KLAS 
48nm N 
030656Z 00000KT 10SM SCT250 11/M13 A2991 RMK AO2 SLP123 T01061133
TAF
KIFP 
30nm SE 
021720Z 0218/0318 36014G25KT P6SM FEW250 FM022200 35009KT P6SM SKC FM030100 03006KT P6SM SKC FM031700 19011KT P6SM SCT250
KEED 
35nm S 
030520Z 0306/0406 24006KT P6SM SKC FM031700 16014G23KT P6SM SKC FM032100 18018G29KT P6SM SCT120 BKN200 FM040200 22013G22KT P6SM VCSH BKN120 OVC200
NOTAMs
Click for the latest NOTAMs
NOTAMs are issued by the DoD/FAA and will open in a separate window not controlled by AirNav.

 

 
 

Would you like to see your business listed on this page?

 If your business provides an interesting product or service to pilots, flight crews, aircraft, or users of the Kidwell Airport, you should consider listing it here.  To start the listing process, click on the button below
 
Add a business
 

Other Pages about Kidwell Airport

rentor.com/...
 
Update a link
 
Copyright © AirNav, LLC. All rights reserved. Privacy Policy  Contact